Weather History for KDAY - January, 2012

Change the Weather History Date:

Wednesday, January 11, 2012

  Actual Average Record
Temperature  
Mean Temperature 37 °F 27 °F  
Max Temperature 44 °F 34 °F 59 °F (2013)
Min Temperature 30 °F 20 °F -8 °F (1977)
Degree Days  
Heating Degree Days 28 38  
Month to date heating degree days 342 412  
Since 1 July heating degree days 2230 2571  
Cooling Degree Days 0 0  
Month to date cooling degree days 0 0  
Year to date cooling degree days 0 0  
Moisture  
Dew Point 38 °F    
Average Humidity 85    
Maximum Humidity 100    
Minimum Humidity 70    
Precipitation  
Precipitation 0.32 in 0.09 in 2.08 in (2005)
Month to date precipitation 0.41 1.05  
Year to date precipitation 0.41 1.05  
Snow  
Snow 0.00 in 0.30 in 2.80 in (2011)
Month to date snowfall 1.2 2.7  
Since 1 July snowfall 2.9 8.2  
Snow Depth 0.00 in    
Sea Level Pressure  
Sea Level Pressure 29.57 in    
Wind  
Wind Speed 9 mph (ESE)    
Max Wind Speed 21 mph    
Max Gust Speed 24 mph    
Visibility 4 miles    
Events Rain    
T = Trace of Precipitation, MM = Missing Value Source: NWS Daily Summary

Daily Weather History Graph

Daily Weather History Graph

Search for Another Location

Airport or City:

Trip Planner

Search our weather history database for the weather conditions in past years. The results will help you decide how hot, cold, wet, or windy it might be!

Date:

Astronomy

Jan. 11, 2012 Rise Set
Actual Time 7:57 AM EST 5:31 PM EST
Civil Twilight 7:28 AM EST 6:01 PM EST
Nautical Twilight 6:54 AM EST 6:35 PM EST
Astronomical Twilight 6:21 AM EST 7:07 PM EST
Moon 8:28 PM EST (1/11) 9:09 AM EST (1/11)
Length of Visible Light 10h 33m
Length of Day
9h 33m
Waning Gibbous, 93% of the Moon is Illuminated
Jan 11
Waning Gibbous
Jan 16
Last Quarter
Jan 23
New
Jan 30
First Quarter
Feb 7
Full

Hourly Weather History & Observations

Time (EST) Temp. Windchill Dew Point Humidity Pressure Visibility Wind Dir Wind Speed Gust Speed Precip Events Conditions
12:56 AM 34.0 °F 28.8 °F 27.0 °F 75% 29.90 in 10.0 mi SE 5.8 mph - N/A   Partly Cloudy
1:56 AM 32.0 °F 26.4 °F 26.1 °F 79% 29.89 in 10.0 mi SE 5.8 mph - N/A   Partly Cloudy
2:56 AM 30.2 °F 23.4 °F 24.8 °F 80% 29.86 in 10.0 mi SE 6.9 mph - N/A   Scattered Clouds
3:56 AM 33.1 °F 26.9 °F 27.0 °F 78% 29.83 in 10.0 mi ESE 6.9 mph - N/A   Mostly Cloudy
4:56 AM 34.0 °F 28.0 °F 27.0 °F 75% 29.78 in 10.0 mi East 6.9 mph - N/A   Mostly Cloudy
5:56 AM 35.1 °F 29.3 °F 28.9 °F 78% 29.77 in 10.0 mi SE 6.9 mph - N/A   Overcast
6:56 AM 37.0 °F 31.0 °F 30.0 °F 76% 29.75 in 10.0 mi ESE 8.1 mph - N/A   Overcast
7:56 AM 37.4 °F 32.8 °F 30.2 °F 75% 29.73 in 10.0 mi SE 5.8 mph - N/A   Overcast
8:56 AM 39.2 °F 34.2 °F 30.2 °F 70% 29.71 in 10.0 mi East 6.9 mph - N/A   Overcast
9:56 AM 39.0 °F 32.3 °F 32.0 °F 76% 29.70 in 10.0 mi East 10.4 mph - 0.00 in Rain Light Rain
10:56 AM 39.2 °F 33.6 °F 33.8 °F 81% 29.66 in 10.0 mi East 8.1 mph - N/A   Overcast
11:49 AM 37.4 °F 29.8 °F 35.6 °F 93% 29.62 in 3.0 mi East 11.5 mph - 0.08 in Rain Rain
11:56 AM 37.9 °F 31.5 °F 37.0 °F 97% 29.63 in 4.0 mi East 9.2 mph - 0.08 in Rain Light Rain
12:04 PM 39.2 °F 31.6 °F 37.4 °F 93% 29.60 in 2.0 mi East 12.7 mph - 0.02 in Rain Light Rain
12:17 PM 39.2 °F 31.6 °F 37.4 °F 93% 29.58 in 5.0 mi East 12.7 mph - 0.03 in Rain Light Rain
12:56 PM 39.2 °F 31.2 °F 39.2 °F 100% 29.53 in 7.0 mi East 13.8 mph - N/A Rain Light Rain
1:32 PM 41.0 °F 33.1 °F 39.2 °F 93% 29.51 in 6.0 mi East 15.0 mph - 0.01 in Rain Light Rain
1:56 PM 41.0 °F 34.3 °F 39.9 °F 96% 29.51 in 7.0 mi East 11.5 mph - 0.02 in Rain Light Rain
2:18 PM 41.0 °F 32.8 °F 39.2 °F 93% 29.48 in 1.5 mi East 16.1 mph - 0.00 in Rain Light Rain
2:32 PM 41.0 °F 32.5 °F 41.0 °F 100% 29.47 in 3.0 mi East 17.3 mph - 0.00 in Rain Light Rain
2:38 PM 41.0 °F 32.8 °F 41.0 °F 100% 29.47 in 2.0 mi East 16.1 mph 23.0 mph 0.00 in Rain Light Rain
2:44 PM 41.0 °F 33.1 °F 41.0 °F 100% 29.47 in 1.2 mi ESE 15.0 mph - 0.00 in Rain Light Rain
2:56 PM 41.0 °F 33.9 °F 41.0 °F 100% 29.49 in 1.0 mi East 12.7 mph - 0.04 in Rain Light Rain
3:39 PM 41.0 °F 33.5 °F 41.0 °F 100% 29.46 in 2.0 mi East 13.8 mph - 0.08 in Rain Light Rain
3:48 PM 41.0 °F 33.9 °F 41.0 °F 100% 29.46 in 3.0 mi ESE 12.7 mph - 0.08 in Rain Light Rain
3:56 PM 41.0 °F 33.9 °F 41.0 °F 100% 29.48 in 5.0 mi ESE 12.7 mph - 0.08 in   Overcast
4:56 PM 41.0 °F 35.8 °F 41.0 °F 100% 29.48 in 1.8 mi East 8.1 mph - 0.00 in Rain Light Rain
5:33 PM 41.0 °F 34.3 °F 41.0 °F 100% 29.46 in 2.5 mi ESE 11.5 mph - 0.01 in   Overcast
5:53 PM 42.8 °F 36.6 °F 41.0 °F 93% 29.45 in 1.0 mi ESE 11.5 mph - N/A   Overcast
5:56 PM 42.1 °F 36.1 °F 41.0 °F 96% 29.47 in 1.0 mi ESE 10.4 mph - 0.01 in   Overcast
6:23 PM 42.8 °F 37.5 °F 42.8 °F 100% 29.44 in 0.5 mi ESE 9.2 mph - N/A   Overcast
6:56 PM 42.1 °F 37.1 °F 42.1 °F 100% 29.45 in 0.5 mi SE 8.1 mph - N/A   Overcast
7:56 PM 43.0 °F 37.7 °F 43.0 °F 100% 29.44 in 0.5 mi ESE 9.2 mph - 0.00 in   Overcast
8:56 PM 43.0 °F 40.3 °F 43.0 °F 100% 29.44 in 0.5 mi SSE 4.6 mph - N/A   Overcast
9:45 PM 42.8 °F 40.1 °F 42.8 °F 100% 29.41 in 0.5 mi SSE 4.6 mph - N/A   Overcast
9:56 PM 43.0 °F 40.3 °F 43.0 °F 100% 29.42 in 0.5 mi SSE 4.6 mph - N/A   Overcast
10:33 PM 44.6 °F 42.2 °F 44.6 °F 100% 29.41 in 0.5 mi South 4.6 mph - N/A   Overcast
10:56 PM 44.6 °F 43.1 °F 44.6 °F 100% 29.41 in 0.5 mi SSE 3.5 mph - N/A Rain Light Rain
11:56 PM 44.1 °F 39.5 °F 44.1 °F 100% 29.42 in 2.5 mi SW 8.1 mph - 0.02 in Rain Light Rain